This demonstration page uses our WeatherBlox Daily Observations layout. Learn more.

Left ArrowRight Arrow

Hourly Observations for May 19, 2015

Temp ( °F °C ) Dew Point ( °F °C ) Humidity (%) Winds ( mph kmh ) Pressure ( in mb ) Visibility ( mi km ) Precip ( " mm )
12:53 am 00:53 Partly Cloudy 68 20 62 16.7 81 81 ESE 16 26 29.83 1010 10 16 0.00 0.00
1:53 am 01:53 Clear 68 20 63 17.2 84 84 ESE 14 22 29.83 1010 10 16 0.00 0.00
2:35 am 02:35 Mostly Cloudy 68 20 63 17.2 84 84 ESE 22 35 29.83 1010 10 16 0.00 0.00
2:53 am 02:53 Mostly Cloudy 68 20 62 16.7 81 81 ESE 18 30 29.80 1009 10 16 0.00 0.00
3:09 am 03:09 Cloudy 68 20 61 16.1 78 78 ESE 23 37 29.83 1010 10 16 0.00 0.00
3:49 am 03:49 Cloudy 66 19 59 15 78 78 ESE 21 33 29.83 1010 10 16 0.00 0.00
3:53 am 03:53 Cloudy 66 18.9 59 15 78 78 E 20 31 29.80 1009 10 16 0.00 0.00
4:53 am 04:53 Cloudy 67 19.4 59 15 76 76 ESE 14 22 29.82 1010 10 16 0.00 0.00
5:53 am 05:53 Cloudy 66 18.9 60 15.6 81 81 SE 18 30 29.80 1009 10 16 0.00 0.00
6:39 am 06:39 Cloudy 67 19.4 61 16.1 81 81 SE 20 31 29.83 1010 10 16 0.00 0.00
6:53 am 06:53 Mostly Cloudy 66 18.9 61 16.1 84 84 SE 20 31 29.80 1009 10 16 0.00 0.00
7:53 am 07:53 Sunny 68 20 62 16.7 81 81 SE 17 28 29.83 1010 10 16 0.00 0.00
8:29 am 08:29 Mostly Cloudy 69 20.6 63 17.2 81 81 SE 16 26 29.83 1010 10 16 0.00 0.00
8:46 am 08:46 Cloudy 70 21.1 64 17.8 82 82 SE 15 24 29.83 1010 10 16 0.00 0.00
8:53 am 08:53 Mostly Cloudy 71 21.7 64 17.8 79 79 SE 15 24 29.83 1010 10 16 0.00 0.00
9:53 am 09:53 Partly Cloudy 75 23.9 65 18.3 71 71 SSE 17 28 29.83 1010 10 16 0.00 0.00
10:53 am 10:53 Mostly Sunny 80 26.7 64 17.8 58 58 S 18 30 29.82 1010 10 16 0.00 0.00
11:53 am 11:53 Mostly Cloudy 81 27.2 62 16.7 53 53 SW 8 13 29.82 1010 10 16 0.00 0.00
12:53 pm 12:53 Sunny 84 28.9 59 15 43 43 WSW 10 17 29.81 1010 10 16 0.00 0.00
1:53 pm 13:53 Sunny 86 30 52 11.1 31 31 VRB 3 6 29.80 1009 10 16 0.00 0.00
2:53 pm 14:53 Sunny 88 31.1 51 10.6 28 28 W 8 13 29.78 1008 10 16 0.00 0.00
3:53 pm 15:53 Sunny 89 31.7 48 8.9 24 24 Calm 29.74 1007 10 16 0.00 0.00
4:53 pm 16:53 Sunny 90 32.2 45 7.2 21 21 SSW 7 11 29.72 1006 10 16 0.00 0.00
5:53 pm 17:53 Sunny 90 32.2 44 6.7 20 20 SW 10 17 29.69 1006 10 16 0.00 0.00
6:53 pm 18:53 Sunny 88 31.1 58 14.4 36 36 SE 12 19 29.68 1005 10 16 0.00 0.00
7:53 pm 19:53 Sunny 84 28.9 59 15 43 43 SE 15 24 29.70 1006 10 16 0.00 0.00
8:53 pm 20:53 Clear 80 26.7 64 17.8 58 58 SE 14 22 29.71 1006 10 16 0.00 0.00
9:53 pm 21:53 Clear 77 25 65 18.3 66 66 SE 13 20 29.73 1007 10 16 0.00 0.00
10:53 pm 22:53 Clear 74 23.3 66 18.9 76 76 SE 9 15 29.74 1007 10 16 0.00 0.00
11:53 pm 23:53 Clear 72 22.2 64 17.8 76 76 SE 6 9 29.76 1008 10 16 0.00 0.00

Powered by AerisWeather